FW9580 Weather Reports


time (UTC)temp
F
wind
direction
speed
knots
gust
knots
rain 1hr
in
rain 24hr
in
rain mn
in
humidity
%
barometer
mb
20260504231505 51 120 4.3 7.0 0.00 0.04 0.04 74 1005.8
20260504230005 51 128 4.3 7.8 0.00 0.04 0.04 74 1005.7
20260504224503 52 122 2.6 6.1 0.00 0.04 0.04 73 1005.4
20260504223004 54 129 4.3 6.1 0.00 0.04 0.04 70 1005.3
20260504221502 54 120 0.9 6.1 0.00 0.04 0.04 68 1005.4
20260504220004 55 134 2.6 6.1 0.00 0.04 0.04 66 1005.5
20260504214501 56 135 3.5 7.0 0.00 0.04 0.04 63 1005.2
20260504213002 57 144 5.2 8.7 0.00 0.04 0.04 64 1005.2
20260504211501 57 140 4.3 7.8 0.00 0.04 0.04 62 1005.2
20260504210106 57 131 6.1 10.4 0.00 0.04 0.04 61 1005.1
20260504204605 58 171 5.2 11.3 0.00 0.04 0.04 62 1005.0
20260504203101 58 113 5.2 11.3 0.00 0.04 0.04 66 1005.0
20260504201559 58 130 6.1 11.3 0.00 0.04 0.04 68 1004.8
20260504200058 57 120 7.0 11.3 0.00 0.05 0.04 70 1004.8
20260504194600 58 170 3.5 7.0 0.00 0.05 0.04 72 1004.9
20260504193109 57 167 4.3 7.0 0.00 0.05 0.04 79 1004.9
20260504191554 55 178 2.6 7.0 0.01 0.05 0.04 79 1005.1
20260504184551 51 182 2.6 4.3 0.04 0.08 0.04 88 1005.6
20260504183058 48 188 2.6 6.1 0.04 0.08 0.04 88 1006.0
20260504181548 47 193 4.3 11.3 0.03 0.07 0.03 86 1006.1
20260504180122 48 165 4.3 11.3 0.01 0.10 0.01 80 1005.8
20260504174546 51 182 6.1 10.4 0.00 0.09 0.00 69 1005.5
20260504173046 51 157 7.8 12.2 0.00 0.09 0.00 68 1005.3
20260504171548 50 140 9.6 16.5 0.00 0.09 0.00 69 1005.3
20260504100116 40 188 5.2 9.6 0.00 0.68 0.00 71 1007.0
20260504081548 37 193 2.6 6.1 0.00 0.71 0.00 76 1006.6
20260504050021 40 267 4.3 13.9 0.00 0.79 0.79 70 1005.4
20260504044532 40 242 6.1 13.9 0.00 0.79 0.79 71 1005.4
20260504043028 40 246 5.2 10.4 0.00 0.79 0.79 73 1005.4
20260504041519 40 213 4.3 11.3 0.00 0.79 0.79 71 1005.3
20260504040021 40 236 6.1 12.2 0.00 0.79 0.79 70 1005.1
20260504034519 40 249 6.1 10.4 0.00 0.79 0.79 71 1004.9
20260504033017 41 240 6.1 10.4 0.00 0.79 0.79 70 1004.8
20260504031519 41 229 6.1 11.3 0.00 0.79 0.79 69 1004.7
20260504030017 41 256 4.3 14.8 0.00 0.79 0.79 69 1004.6
20260504024517 41 242 5.2 12.2 0.00 0.79 0.79 68 1004.5
20260504023016 41 276 5.2 13.0 0.00 0.79 0.79 68 1004.3
20260504021515 42 287 4.3 11.3 0.00 0.79 0.79 67 1004.2
20260504020014 42 252 8.7 15.6 0.00 0.79 0.79 66 1004.1
20260504014514 42 238 7.8 18.2 0.00 0.79 0.79 66 1004.1
20260504013018 43 261 7.8 17.4 0.00 0.79 0.79 66 1003.9
20260504011511 43 262 7.8 18.2 0.00 0.79 0.79 67 1003.6
20260504010010 43 250 7.0 13.9 0.00 0.79 0.79 70 1003.3
20260504004516 43 250 7.8 15.6 0.00 0.79 0.79 72 1003.0
20260504003005 43 271 7.8 14.8 0.00 0.79 0.79 79 1002.7
20260504001505 42 252 3.5 7.0 0.00 0.79 0.79 91 1002.5
20260504000004 42 257 1.7 5.2 0.00 0.79 0.79 89 1002.3
20260503234503 43 271 3.5 6.1 0.00 0.79 0.79 88 1002.1
20260503233002 44 277 2.6 6.1 0.00 0.79 0.79 87 1001.9